Powrót do katalogu

HYVRID

AktywnyNaukaSSO
NORAD 63260·PAYLOAD·🇰🇷 South Korea

Wystrzelony Mar 15, 2025 z Vandenberg Space Force Base

Loading…

Następne Przeloty (najbliższe 24 godziny)

TLE

ŚwieżeSource: Space-Track

Epoka: Sep 14, 2026, 15:38 UTC

1 63260U 25052BC  26257.65149900  .00001428  00000-0  13608-3 0  9993
2 63260  97.6704 147.1345 0002887  61.1406 299.0104 14.94893400 81994

Śledź HYVRID w czasie rzeczywistym z AllMySat

Download on the App Store